CZ-6A DEB

Satellite information

Favourite Embed

Satellite Type and Status

DEBRISIN ORBIT

Key statistics

Satellite CZ-6A DEB at a glance.

Uptime

1129

Days in orbit

Revolutions

≈ 13.9

Per day

Orbit

SSO

Sun Synchronous Orbit

Inclination

98.8

Latest

Satellite identification and parameters

Extended collection of information and parameters for CZ-6A DEB.

Object identification

Identified? True

Debris? True

Object name: CZ-6A DEB

International designator: 2022-151AFQ

Object number (NORAD): 56640

Object ID (CCSDS): 56640

Country: PEOPLES REPUBLIC OF CHINA (PRC)

Current information (Y/N): Y

RCS size: SMALL

Orbital parameters

Period: 103.29 minutes

Inclination: 98.7821 deg

SMA: 7292.32 km

Apoapsis: 1010.156 km

Periapsis: 818.214 km

RAAN: 300.3156 deg

Eccentricy: 0.01316057

Argument of periapsis: 233.27 deg

Mean anomaly: 125.6317 deg

Mean motion: 13.94132839 rev/day

Mean motion (dot): 0.00001996 rev/day2

B* drag term: 0.0014308276 1/REarth

Two-line elements (TLE)

Creation date: Dec. 11, 2025, 7:14 p.m.

Reference frame: TEME

Reference center: EARTH

Epoch: Dec. 11, 2025, 2:33 p.m. UTC

TLE line 0: 0 CZ-6A DEB

TLE line 1: 1 56640U 22151AFQ 25345.60662067 .00001996 00000-0 14308-2 0 9997

TLE line 2: 2 56640 98.7821 300.3156 0131606 233.2700 125.6317 13.94132839138730

Live tracking on map

Real-time ground track for satellite CZ-6A DEB.

In-orbit conjunctions

A list of the most updated potential collisions computed for object CZ-6A DEB.

Target Orbit TCA Probability of collision Miss distance Type
COSMOS 996 LEO 2025-09-10 17:04:57 0.0001052961 378.0 (m) PAYLOAD
SL-8 R/B LEO 2025-08-03 04:38:56 0.0001299605 454.0 (m) ROCKET BODY
METEOR 2-19 LEO 2025-01-07 07:32:30 0.0001117326 115.0 (m) PAYLOAD

Associated space launch

Chinese satellite reported for atmospheric/ocean/environmental/spatial parameter research purposes, details TBD.

CZ-6A DEB was lifted into orbit during the mission ‘Long March 6A | Yunhai 3’, on board a Long March 6A space rocket.

The launch took place on Nov. 11, 2022, 10:52 p.m. from Launch Complex 9A.

For more information about the launch, click the button.

Launch to space Long March 6A | Yunhai 3
Long March 6A | Yunhai 3

Agency: N/A

Status: Launch Successful

Launch date: Nov. 11, 2022, 10:52 p.m. UTC

Rocket: Long March 6A

Launch pad: Launch Complex 9A

Location: Taiyuan Satellite Launch Center, People's Republic of China

...

Latest news about this satellite

There are no fresh news available about this satellite. Check back as we update our databases every day.


Newsletter sign-up

Weekly statistics, charts and insights to help you stay on top of the space industry.